RH
82 84 91 88 88 75 90 100 100 100 88 62 48 21 14 15 14 15 14 15 16 25 30 29 25 22 20 18 21 29 33 32 32 32 34 34 34 37 35 39 39 36 36
100 98 94 97 100 100 100 100 99 67 49 33 16 14 16 16 15 15 18 26 30 30 26 22 20 21 30 34 33 34 33 38 41 39 41 49 53 56 51 50 47 44 42
100 100 100 100 100 100 97 82 54 34 19 15 16 17 16 17 18 23 30 32 30 24 22 25 35 36 34 37 39 47 51 46 46 51 52 51 49 48 50 50 48 45 40
100 95 94 89 83 72 57 38 16 14 16 18 18 18 19 21 29 33 32 26 22 26 36 37 36 38 43 46 51 54 52 55 54 50 49 53 66 54 52 49 50 48 45
43 31 49 64 44 23 14 14 14 18 20 19 19 21 28 35 34 27 22 26 34 37 36 42 47 47 50 56 53 60 62 54 63 68 69 83 86 89 78 72 55 47 51
19 19 18 16 16 16 16 17 20 20 20 20 23 36 38 29 22 26 31 34 36 41 48 48 54 59 73 84 88 90 89 80 70 78 77 72 67 89 88 78 70 62 50
19 15 14 16 19 19 20 23 21 21 22 26 41 38 27 29 31 32 38 45 46 50 54 60 92 92 95 79 76 74 83 80 83 73 74 70 85 74 77 71 81 79 72
17 16 19 21 21 22 23 21 23 22 31 42 36 29 35 36 40 43 45 46 67 88 100 99 74 59 61 68 80 77 83 80 80 81 81 86 98 84 76 82 84 85 84
19 22 24 22 22 22 22 21 24 36 43 33 34 36 38 42 46 45 55 69 82 67 53 57 71 79 85 79 78 85 87 85 90 95 92 94 95 81 87 90 85 80 73
25 26 24 24 24 24 21 26 41 41 33 39 40 41 44 54 53 66 76 66 74 78 74 86 98 100 100 100 100 100 99 82 73 73 76 75 82 80 79 86 82 82 84
26 24 24 24 23 22 31 42 35 38 42 54 52 45 52 68 69 65 64 74 93 97 100 100 100 100 100 100 100 77 62 62 60 62 58 56 58 61 57 61 79 79 84
24 27 25 23 25 41 38 32 38 41 52 57 51 52 62 60 59 71 78 72 71 76 89 99 100 100 100 89 79 81 76 64 67 62 66 75 80 80 78 85 85 100 85
28 24 22 33 42 32 34 36 41 48 52 46 53 60 66 70 65 66 82 93 100 100 100 88 86 72 67 58 59 63 68 69 66 67 71 68 72 83 80 74 71 76 91
24 34 43 35 35 36 42 43 43 51 56 60 66 67 66 65 85 97 100 100 78 67 63 55 53 52 54 54 56 66 68 69 69 62 61 58 56 55 59 55 60 66 62
43 34 36 37 39 42 44 47 53 64 64 60 56 71 100 100 100 88 67 55 46 45 49 52 52 54 56 54 53 56 58 54 50 46 48 47 50 52 49 46 42 41 49
36 39 38 42 52 65 63 64 73 89 92 100 100 97 61 50 51 46 45 48 46 54 52 55 59 64 62 62 66 64 57 54 52 50 52 53 53 48 44 38 37 36 38
38 50 62 64 67 81 91 98 100 95 74 55 50 47 50 60 65 62 58 56 60 59 52 59 66 65 62 57 54 53 51 45 43 42 41 44 42 42 39 35 28 28 27
66 69 77 87 85 87 75 67 62 49 48 50 43 42 43 45 50 52 53 61 69 69 59 57 74 74 77 71 69 60 55 47 37 32 30 27 27 28 28 23 21 21 20
67 51 47 45 40 42 45 56 52 51 44 45 56 58 56 57 60 76 75 71 70 65 78 89 91 80 62 52 48 39 37 27 24 22 22 20 20 20 16 18 18 16 17
42 43 46 62 75 76 69 56 55 67 71 64 52 54 64 79 80 74 72 82 85 88 99 94 76 69 58 47 35 27 22 20 18 18 17 17 18 15 12 12 13 15 17
59 61 62 88 93 79 67 68 56 47 47 49 52 66 70 78 86 80 89 90 95 91 74 60 53 44 35 26 23 19 18 15 16 16 14 14 12 10 10 10 11 14 14
79 68 67 61 55 57 56 54 56 63 65 71 93 99 100 100 97 80 78 83 76 58 50 49 45 32 24 20 17 16 15 14 13 12 11 11 10 10 9 9 10 10 11
71 79 91 86 79 74 67 80 92 87 86 94 99 93 95 95 94 86 65 54 45 40 41 35 28 21 18 16 16 14 13 12 12 12 12 10 9 9 10 10 10 11 12
85 93 82 66 66 71 75 69 71 84 99 100 100 98 86 86 77 66 52 42 39 36 38 31 23 18 16 15 14 12 12 13 13 12 11 9 9 9 10 10 11 11 13
59 56 60 65 70 76 84 82 76 79 96 91 76 79 81 77 57 46 36 27 27 29 26 19 16 16 15 13 11 11 12 13 13 12 10 9 9 9 10 10 10 10 10
49 52 56 73 76 79 78 70 65 71 80 73 68 62 57 52 45 38 29 25 27 25 18 16 15 15 13 11 12 12 13 13 12 10 10 9 9 9 10 9 9 11 12
Wind_Speed
58 59 61 61 61 63 65 69 68 66 67 71 72 71 71 73 74 76 77 73 68 60 62 66 66 65 63 57 49 44 43 42 40 36 34 34 32 33 33 32 35 37 38
61 63 63 66 66 69 69 69 66 68 69 69 71 71 75 76 77 75 68 60 60 64 65 65 61 50 42 41 38 35 32 30 29 28 24 24 27 31 32 33 36 37 39
56 58 61 63 64 66 64 65 67 68 68 70 73 77 77 79 69 61 60 64 65 65 60 47 41 40 34 30 27 23 23 24 24 25 25 25 26 27 29 31 34 37 39
57 59 60 60 62 62 63 64 64 66 71 76 78 80 78 63 59 62 65 65 59 47 40 39 33 28 24 22 22 21 22 21 21 23 24 26 29 30 34 33 36 37 39
58 59 60 61 60 58 59 63 68 75 79 81 80 76 60 62 64 64 58 46 39 38 31 25 24 23 22 20 20 20 21 24 26 27 27 28 31 35 40 43 43 41 39
59 59 59 60 60 61 65 71 76 81 81 82 69 61 64 65 56 43 38 36 29 23 21 22 18 18 19 18 21 24 26 31 32 35 37 38 38 37 42 47 49 51 49
60 57 58 62 65 68 72 76 79 79 82 63 60 63 60 46 37 29 23 20 20 18 16 17 20 22 26 29 30 33 35 37 39 41 42 42 44 44 46 50 51 55 54
63 64 66 68 71 73 77 79 81 81 60 59 62 52 38 30 26 23 22 21 12 13 18 22 26 30 34 36 38 42 44 43 44 46 46 50 51 53 52 52 52 54 57
67 69 70 72 75 78 80 83 75 58 59 60 45 34 28 26 26 22 15 15 21 26 28 32 35 38 40 42 44 47 48 49 50 52 55 56 56 57 57 58 58 59 63
70 71 72 76 80 81 83 67 57 59 52 38 29 28 26 23 22 20 22 25 27 30 34 36 38 42 46 48 50 51 54 55 54 58 60 62 64 66 65 64 64 64 66
73 73 77 80 82 80 60 57 55 40 30 24 26 26 24 22 25 26 30 31 33 37 41 44 47 52 54 56 57 61 63 63 64 65 68 69 70 71 70 70 71 71 68
76 79 79 82 68 55 57 48 36 26 24 26 28 25 26 29 32 33 35 38 42 47 51 53 56 59 62 65 67 69 69 69 72 73 76 77 78 78 77 77 75 76 75
78 80 75 55 54 52 39 29 22 22 25 27 28 30 33 37 38 42 46 49 53 58 58 60 63 66 68 72 74 75 77 79 80 82 82 83 85 86 86 82 81 79 77
65 51 49 48 40 29 22 22 24 25 25 30 33 34 40 43 50 53 55 58 60 61 65 69 72 73 76 79 81 83 85 86 88 87 88 86 87 86 86 85 85 83 81
44 43 34 25 20 21 24 25 26 27 34 36 40 45 50 52 55 58 62 65 66 67 71 75 77 78 80 81 82 84 85 86 88 89 91 93 93 91 89 87 86 86 86
26 18 19 20 19 22 25 26 30 35 40 45 48 51 54 59 62 65 68 70 70 71 76 76 79 84 86 86 85 85 88 90 90 89 89 90 91 91 89 90 88 88 88
20 18 19 22 26 31 32 36 40 43 47 50 54 56 59 64 67 68 69 71 72 76 80 82 86 87 88 88 87 88 89 91 92 94 96 97 97 94 94 92 90 90 90
19 23 28 30 33 37 40 45 48 50 55 57 58 62 66 69 72 71 73 74 80 81 86 89 93 95 96 93 92 92 92 94 94 94 95 96 97 96 95 93 92 91 91
28 31 35 38 41 44 47 51 54 57 60 63 68 72 70 72 71 75 80 82 83 89 91 96 100 98 95 94 94 95 96 98 98 98 99 96 95 94 91 89 90 90 86
38 41 44 49 51 52 56 60 62 64 68 71 73 72 75 76 80 83 86 89 90 94 98 99 99 98 98 99 97 98 100 100 100 97 95 93 93 93 89 83 83 82 82
44 47 52 57 57 60 63 64 68 70 71 75 78 80 84 85 89 92 93 96 100 102 102 97 97 96 97 97 97 98 97 96 93 93 94 91 88 87 84 81 77 76 77
50 53 55 59 63 66 70 72 75 78 80 83 85 87 90 94 96 98 100 104 104 101 95 97 97 96 96 95 97 95 93 91 90 90 88 86 84 83 80 77 74 72 69
55 58 63 67 70 73 75 78 80 81 84 87 90 92 96 100 102 105 104 103 102 99 98 95 92 91 93 92 91 91 90 87 84 85 83 82 80 78 75 73 70 67 66
61 66 72 75 75 76 77 78 79 82 86 91 95 98 101 103 103 106 108 105 101 96 92 90 88 88 91 91 89 88 84 81 78 77 78 76 74 72 70 68 67 64 61
70 73 74 76 79 80 81 83 82 84 90 94 96 98 101 104 106 105 106 100 95 90 89 88 87 88 89 87 85 83 77 75 74 73 73 70 69 67 64 62 61 60 58
78 78 80 83 85 85 87 87 89 88 88 92 95 99 100 103 104 102 98 95 90 88 86 85 85 86 83 83 80 76 72 72 70 69 66 65 62 60 59 58 58 54 54
Wind_Direction
261 263 264 269 271 273 276 278 282 283 290 293 295 297 297 299 299 301 298 298 298 298 299 298 297 296 296 297 299 298 296 295 293 292 289 285 289 291 294 297 296 293 292
259 264 263 267 271 274 276 281 284 291 291 295 296 300 301 304 302 299 299 297 300 300 299 299 299 301 301 299 297 296 294 296 295 295 296 308 308 306 304 300 297 296 292
263 267 267 270 273 274 281 286 290 291 295 298 302 305 305 304 301 299 301 302 301 300 300 302 301 300 299 297 297 301 302 305 309 314 317 314 307 307 306 304 299 297 293
265 269 271 275 279 283 287 290 294 296 300 304 307 306 305 302 303 304 302 301 300 300 300 301 301 301 300 301 304 303 307 315 319 318 319 319 320 317 310 308 308 307 305
269 275 278 281 284 289 291 294 298 302 304 307 306 306 304 305 304 303 301 298 299 300 299 300 301 300 305 311 314 318 317 317 320 320 319 318 318 318 318 317 311 310 313
271 275 280 285 289 292 296 300 302 304 305 305 306 306 305 305 305 301 300 299 302 303 303 301 303 306 311 318 324 318 316 315 316 316 316 314 311 309 311 312 313 314 313
276 282 285 287 290 294 297 300 303 305 306 305 304 305 305 304 304 304 304 303 304 305 307 310 321 321 318 311 310 309 310 312 311 312 313 313 314 310 311 312 313 312 312
280 285 286 289 290 295 299 302 304 306 304 303 304 304 300 301 305 305 304 304 304 307 312 308 301 306 307 308 307 313 314 313 311 311 309 309 308 308 309 310 308 308 309
280 282 285 289 292 296 298 302 304 302 303 303 300 295 295 298 300 300 291 298 297 303 306 308 311 314 314 312 312 312 310 308 308 306 307 307 306 305 304 305 305 305 304
278 280 286 290 294 296 298 300 299 301 300 294 288 293 296 293 294 287 288 299 302 307 311 311 312 312 313 309 308 307 306 305 302 302 301 301 303 303 304 304 305 307 306
277 282 287 289 293 296 296 297 298 295 286 278 286 291 286 285 289 293 297 303 304 305 308 307 308 307 306 304 302 303 304 303 304 304 302 300 299 301 301 302 303 301 301
279 283 287 289 293 293 294 293 287 276 272 278 282 284 283 290 294 299 302 303 306 306 307 308 307 306 303 302 303 303 302 301 300 300 300 300 300 301 301 299 298 299 296
280 284 287 288 291 293 289 281 272 273 279 285 287 290 297 302 298 297 301 306 306 305 303 301 300 300 300 300 301 300 299 298 297 297 298 298 299 299 298 296 295 293 294
281 281 285 288 286 278 273 271 278 275 279 292 292 295 300 301 302 302 301 301 299 297 297 298 297 299 299 299 299 299 298 298 297 297 297 296 296 294 291 290 290 290 290
280 284 282 273 268 279 288 289 288 286 295 293 293 296 300 299 298 297 298 298 297 298 299 300 300 301 301 300 299 299 298 298 296 297 297 296 296 296 294 291 289 288 287
274 260 269 277 283 295 295 290 292 294 293 298 298 296 295 297 298 298 299 298 298 299 301 300 304 303 301 299 298 298 296 296 295 295 294 294 294 294 294 293 293 289 287
268 271 288 288 289 299 294 292 293 293 293 293 293 294 295 298 300 299 301 299 297 297 301 303 305 304 303 300 298 296 296 296 295 295 294 294 294 292 292 293 292 292 290
283 283 287 290 289 289 291 293 292 292 294 295 297 300 299 297 297 296 299 300 302 302 306 306 308 306 306 303 302 300 299 297 295 294 293 292 292 292 293 293 291 289 291
283 281 282 284 288 289 290 293 295 296 298 298 297 297 295 299 301 299 299 302 302 306 304 304 304 304 302 300 299 297 296 296 296 295 294 295 294 294 294 294 292 291 292
288 290 292 295 294 294 297 297 297 294 292 292 296 299 299 299 299 301 303 305 304 304 303 303 303 301 301 299 299 298 297 296 296 296 295 296 296 296 296 294 292 292 292
294 295 294 294 296 297 297 296 294 296 297 298 299 300 299 300 299 302 303 303 302 301 302 302 301 301 299 298 296 296 296 297 297 297 298 297 297 296 296 296 295 292 291
300 301 302 301 301 301 301 301 300 301 301 302 301 299 298 298 299 302 302 302 302 303 301 302 302 300 298 298 297 298 298 299 299 298 297 297 297 297 298 297 295 293 293
307 306 304 302 301 301 302 302 300 300 300 299 297 297 297 298 299 301 302 302 302 302 300 301 301 300 299 299 299 300 301 300 300 298 297 297 298 297 297 297 296 295 294
305 302 300 301 301 300 298 297 297 297 295 293 293 295 298 299 300 302 303 303 301 300 301 300 299 299 300 300 300 300 300 300 298 297 296 296 296 297 296 296 297 296 294
299 300 300 303 302 302 300 298 297 295 293 294 297 296 298 300 302 303 304 304 303 302 300 299 299 299 300 300 300 299 298 298 297 297 296 295 295 297 296 296 295 293 292
305 307 306 307 307 304 303 300 299 297 296 297 298 300 301 300 302 304 303 304 302 301 299 298 298 299 300 300 298 298 299 297 298 297 295 294 295 296 295 294 293 292 291